Location: Augsburg
(48.3836°N, 10.8929°E)
Time: 02:58:06
(UTC+01:00)

ISS - Pass Details

Date: 04 December 2021
Orbit: 413 x 422 km, 51.6° (Epoch: 24 January)

Event Time Altitude Azimuth Distance (km) Brightness Sun altitude
Rises 17:50:30 0° 291° (WNW) 2,386 0.9 -13.9°
Reaches altitude 10° 17:52:37 10° 291° (WNW) 1,517 -0.2 -14.2°
Maximum altitude 17:56:02 85° 203° (SSW) 430 -3.8 -14.8°
Enters shadow 17:57:56 24° 116° (ESE) 923 -2.4 -15.1°
